Creek Data

    Home     View Charts     View Raw Data     Messages

ID Distance Battery Voltage Battery Current Internal Temp Internal Humidity External Temp Solar Input rssi snr Time Stamp Record
67547 13.9 3.77 20 53 51 53 4.5 -71 8 02/28/2026 07:15 AM 50391
67546 13.9 3.80 5 53 52 54 4.5 -70 8 02/28/2026 07:00 AM 50390
67545 13.9 3.56 -10 52 52 53 4.4 -71 9 02/28/2026 06:45 AM 50389
67544 13.9 3.59 -5 52 52 54 0.9 -71 9 02/28/2026 06:30 AM 50388
67543 13.8 3.59 -5 52 52 54 0 -71 8 02/28/2026 06:15 AM 50387
67542 13.9 3.75 -5 52 52 53 0 -71 8 02/28/2026 06:00 AM 50386
67541 13.8 3.75 -5 52 52 53 0 -71 8 02/28/2026 05:45 AM 50385
67540 13.8 3.75 -5 52 52 53 0 -71 9 02/28/2026 05:30 AM 50384
67539 13.8 3.75 -5 53 52 54 0 -71 9 02/28/2026 05:15 AM 50383
67538 13.8 3.59 -5 53 52 54 0.1 -71 8 02/28/2026 05:00 AM 50382
67537 13.8 3.59 -5 53 52 54 0 -71 8 02/28/2026 04:45 AM 50381
67536 13.8 3.58 -5 54 52 54 0 -71 8 02/28/2026 04:30 AM 50380
67535 13.8 3.59 -5 54 52 55 0 -72 8 02/28/2026 04:15 AM 50379
67534 13.8 3.60 -5 54 52 54 0 -71 8 02/28/2026 04:00 AM 50378
67533 13.8 3.60 -5 54 52 55 0 -70 8 02/28/2026 03:45 AM 50377
67532 13.8 3.60 -5 54 52 54 0 -71 8 02/28/2026 03:30 AM 50376
67531 13.8 3.60 -5 54 52 54 0 -71 8 02/28/2026 03:15 AM 50375
67530 13.8 3.76 -5 54 52 55 0 -71 8 02/28/2026 03:00 AM 50374
67529 13.8 3.76 -5 54 52 54 0 -71 8 02/28/2026 02:45 AM 50373
67528 13.8 3.76 -5 54 52 54 0 -71 9 02/28/2026 02:30 AM 50372
67527 13.8 3.76 -5 54 52 55 0 -71 8 02/28/2026 02:15 AM 50371
67526 13.8 3.76 -5 55 52 55 0 -72 7 02/28/2026 02:00 AM 50370
67525 13.8 3.77 -5 55 52 56 0 -71 8 02/28/2026 01:45 AM 50369
67524 13.8 3.61 -5 56 52 56 0 -71 8 02/28/2026 01:30 AM 50368
67523 13.7 3.60 -5 56 52 56 0.1 -71 8 02/28/2026 01:15 AM 50367